| time (UTC) | temp F | wind direction | speed MPH | gust MPH | rain 1hr in | rain 24hr in | rain mn in | humidity % | barometer mb |
| 20260507113308 | 41 | 320 | 8.0 | 0.0 | 0.00 | 0.00 | 0.00 | 52 | 1014.0 |
| 20260507110307 | 39 | 270 | 6.0 | 0.0 | 0.00 | 0.00 | 0.00 | 48 | 1014.0 |
| 20260507103307 | 39 | 240 | 6.0 | 0.0 | 0.00 | 0.00 | 0.00 | 51 | 1014.0 |
| 20260507100308 | 39 | 270 | 5.0 | 0.0 | 0.00 | 0.00 | 0.00 | 51 | 1013.0 |
| 20260507093307 | 37 | 320 | 7.0 | 0.0 | 0.00 | 0.00 | 0.00 | 51 | 1013.0 |
| 20260507090308 | 37 | 0 | 5.0 | 0.0 | 0.00 | 0.00 | 0.00 | 51 | 1013.0 |
| 20260507083307 | 37 | 0 | 3.0 | 0.0 | 0.00 | 0.00 | 0.00 | 51 | 1013.0 |
| 20260507080308 | 37 | 300 | 6.0 | 0.0 | 0.00 | 0.00 | 0.00 | 59 | 1013.0 |
| 20260507073307 | 35 | 330 | 3.0 | 0.0 | 0.00 | 0.00 | 0.00 | 59 | 1012.0 |
| 20260507070307 | 35 | 0 | 3.0 | 0.0 | 0.00 | 0.00 | 0.00 | 69 | 1012.0 |
| 20260507063307 | 35 | 0 | 2.0 | 0.0 | 0.00 | 0.00 | 0.00 | 69 | 1012.0 |
| 20260507053307 | 33 | 0 | 0.0 | 0.0 | 0.00 | 0.00 | 0.00 | 74 | 1012.0 |
| 20260507050307 | 32 | 0 | 0.0 | 0.0 | 0.00 | 0.00 | 0.00 | 92 | 1012.0 |
| 20260507043308 | 30 | 0 | 0.0 | 0.0 | 0.00 | 0.00 | 0.00 | 10 | 1011.0 |
| 20260507040308 | 30 | 0 | 0.0 | 0.0 | 0.00 | 0.00 | 0.00 | 10 | 1011.0 |
| 20260507033307 | 30 | 0 | 2.0 | 0.0 | 0.00 | 0.00 | 0.00 | 92 | 1011.0 |
| 20260507030306 | 30 | 260 | 2.0 | 0.0 | 0.00 | 0.00 | 0.00 | 92 | 1011.0 |
| 20260507023307 | 30 | 0 | 2.0 | 0.0 | 0.00 | 0.00 | 0.00 | 92 | 1011.0 |
| 20260507020307 | 28 | 0 | 1.0 | 0.0 | 0.00 | 0.00 | 0.00 | 10 | 1011.0 |
| 20260507013307 | 28 | 0 | 1.0 | 0.0 | 0.00 | 0.00 | 0.00 | 10 | 1011.0 |
| 20260507010306 | 28 | 0 | 2.0 | 0.0 | 0.00 | 0.00 | 0.00 | 10 | 1011.0 |
| 20260507003307 | 30 | 10 | 3.0 | 0.0 | 0.00 | 0.00 | 0.00 | 92 | 1010.0 |
| 20260507000307 | 30 | 0 | 2.0 | 0.0 | 0.00 | 0.00 | 0.00 | 92 | 1010.0 |
| 20260506233307 | 30 | 0 | 2.0 | 0.0 | 0.00 | 0.00 | 0.00 | 92 | 1010.0 |
| 20260506230307 | 32 | 0 | 3.0 | 0.0 | 0.00 | 0.00 | 0.00 | 86 | 1010.0 |
| 20260506223307 | 32 | 0 | 3.0 | 0.0 | 0.00 | 0.00 | 0.00 | 86 | 1010.0 |
| 20260506220307 | 32 | 310 | 3.0 | 0.0 | 0.00 | 0.00 | 0.00 | 86 | 1010.0 |
| 20260506213307 | 32 | 0 | 0.0 | 0.0 | 0.00 | 0.00 | 0.00 | 92 | 1010.0 |
| 20260506210307 | 32 | 40 | 3.0 | 0.0 | 0.00 | 0.00 | 0.00 | 10 | 1010.0 |
| 20260506203306 | 33 | 260 | 6.0 | 0.0 | 0.00 | 0.00 | 0.00 | 86 | 1009.0 |
| 20260506200306 | 33 | 240 | 5.0 | 0.0 | 0.00 | 0.00 | 0.00 | 80 | 1009.0 |
| 20260506193307 | 33 | 240 | 5.0 | 0.0 | 0.00 | 0.00 | 0.00 | 80 | 1009.0 |
| 20260506190306 | 35 | 260 | 3.0 | 0.0 | 0.00 | 0.00 | 0.00 | 74 | 1009.0 |
| 20260506183307 | 35 | 260 | 5.0 | 0.0 | 0.00 | 0.00 | 0.00 | 74 | 1009.0 |
| 20260506180307 | 37 | 290 | 3.0 | 0.0 | 0.00 | 0.00 | 0.00 | 69 | 1009.0 |
| 20260506173308 | 35 | 320 | 8.0 | 0.0 | 0.00 | 0.00 | 0.00 | 80 | 1008.0 |
| 20260506170307 | 35 | 310 | 9.0 | 0.0 | 0.00 | 0.00 | 0.00 | 74 | 1008.0 |
| 20260506163307 | 39 | 260 | 8.0 | 0.0 | 0.00 | 0.00 | 0.00 | 64 | 1008.0 |
| 20260506160307 | 35 | 240 | 10.0 | 0.0 | 0.00 | 0.00 | 0.00 | 74 | 1008.0 |
| 20260506153307 | 37 | 250 | 8.0 | 0.0 | 0.00 | 0.00 | 0.00 | 74 | 1008.0 |
| 20260506150307 | 37 | 310 | 7.0 | 0.0 | 0.00 | 0.00 | 0.00 | 59 | 1008.0 |
| 20260506143307 | 39 | 300 | 10.0 | 0.0 | 0.00 | 0.00 | 0.00 | 60 | 1008.0 |
| 20260506140307 | 39 | 310 | 10.0 | 0.0 | 0.00 | 0.00 | 0.00 | 60 | 1007.0 |
| 20260506133307 | 42 | 290 | 8.0 | 0.0 | 0.00 | 0.00 | 0.00 | 52 | 1007.0 |
| 20260506130308 | 41 | 310 | 10.0 | 0.0 | 0.00 | 0.00 | 0.00 | 56 | 1007.0 |
| 20260506123307 | 41 | 290 | 10.0 | 0.0 | 0.00 | 0.00 | 0.00 | 56 | 1007.0 |
| 20260506120308 | 39 | 310 | 10.0 | 0.0 | 0.00 | 0.00 | 0.00 | 60 | 1007.0 |